Horn Island Observation History
Time Wind Speed Temp Pressure Rel. Hum Rain
03/07:30am SE 11-18 kts 25.6°c 1014.5 hPa 75% 0.0mm
03/07:00am SE 9-14 kts 25.0°c 1014.4 hPa 75% 0.0mm
03/06:30am SE 9-12 kts 24.8°c 1014.0 hPa 75% 0.0mm
03/06:00am SE 10-14 kts 25.0°c 1013.8 hPa 75% 0.0mm
03/05:30am SSE 10-14 kts 25.0°c 1013.7 hPa 75% 0.0mm
03/05:00am SE 9-13 kts 24.9°c 1013.5 hPa 75% 0.0mm
03/04:30am SE 9-12 kts 24.8°c 1013.5 hPa 75% 0.0mm
03/04:00am SSE 9-13 kts 24.8°c 1013.6 hPa 75% 0.0mm
03/03:30am SE 9-12 kts 24.8°c 1013.7 hPa 75% 0.0mm
03/03:00am SE 8-11 kts 24.6°c 1013.9 hPa 75% 0.0mm
03/02:30am SE 9-13 kts 24.6°c 1014.3 hPa 74% 0.0mm
03/02:00am SE 10-14 kts 24.8°c 1014.5 hPa 74% 0.0mm
03/01:30am SE 11-16 kts 25.0°c 1014.8 hPa 73% 0.0mm
03/01:00am SE 10-15 kts 24.9°c 1015.1 hPa 73% 0.0mm
03/12:30am SE 10-15 kts 24.9°c 1015.3 hPa 73% 0.0mm
03/12:00am SE 10-16 kts 25.0°c 1015.4 hPa 72% 0.0mm
Time Wind Speed Temp Pressure Rel. Hum Rain
02/11:30pm SE 9-13 kts 24.9°c 1015.5 hPa 71% 0.0mm
02/11:00pm SE 11-15 kts 25.1°c 1015.6 hPa 71% 0.0mm
02/10:30pm SE 11-16 kts 25.1°c 1015.7 hPa 70% 0.0mm
02/10:00pm SE 11-17 kts 25.2°c 1015.8 hPa 71% 0.0mm
02/09:30pm SE 10-14 kts 25.0°c 1015.6 hPa 71% 0.0mm
02/09:00pm SE 11-16 kts 25.1°c 1015.3 hPa 71% 0.0mm
02/08:30pm SSE 11-15 kts 25.1°c 1015.2 hPa 70% 0.0mm
02/08:00pm SE 11-17 kts 25.3°c 1015.0 hPa 68% 0.0mm
02/07:30pm SE 13-19 kts 25.5°c 1014.7 hPa 67% 0.0mm
02/07:00pm SE 10-16 kts 25.8°c 1014.3 hPa 66% 0.0mm
02/06:30pm SE 11-17 kts 26.0°c 1014.1 hPa 64% 0.0mm
02/06:00pm SE 13-19 kts 26.5°c 1013.6 hPa 62% 0.0mm
02/05:30pm SE 12-18 kts 27.3°c 1013.2 hPa 61% 0.0mm
02/05:00pm SE 13-18 kts 27.9°c 1012.9 hPa 61% 0.0mm
02/04:30pm ESE 14-19 kts 27.9°c 1012.6 hPa 61% 0.0mm
02/04:00pm ESE 15-21 kts 28.3°c 1012.5 hPa 61% 0.0mm
02/03:30pm ESE 16-21 kts 28.4°c 1012.5 hPa 60% 0.0mm
02/03:00pm ESE 17-23 kts 28.7°c 1012.5 hPa 62% 0.0mm
02/02:30pm ESE 17-22 kts 28.8°c 1012.5 hPa 61% 0.0mm
02/02:00pm ESE 16-24 kts 28.9°c 1012.9 hPa 60% 0.0mm
02/01:30pm ESE 16-22 kts 29.7°c 1013.1 hPa 61% 0.0mm
02/01:00pm ESE 16-23 kts 28.6°c 1013.4 hPa 62% 0.0mm
02/12:30pm ESE 18-23 kts 28.6°c 1014.0 hPa 63% 0.0mm
02/12:00pm ESE 17-22 kts 29.5°c 1014.5 hPa 64% 0.0mm
02/11:30am ESE 15-21 kts 29.0°c 1014.9 hPa 64% 0.0mm
02/11:00am ESE 15-22 kts 29.1°c 1015.2 hPa 66% 0.0mm
02/10:30am ESE 15-21 kts 27.7°c 1015.5 hPa 69% 0.0mm
02/10:00am ESE 13-17 kts 27.6°c 1015.6 hPa 71% 0.0mm
02/09:30am ESE 15-19 kts 28.2°c 1015.8 hPa 71% 0.0mm
02/09:00am ESE 14-19 kts 27.1°c 1015.8 hPa 73% 0.0mm
02/08:30am ESE 10-13 kts 26.6°c 1015.8 hPa 75% 0.0mm
02/08:00am SE 11-14 kts 26.3°c 1015.5 hPa 76% 0.0mm
02/07:30am ESE 12-16 kts 25.7°c 1015.2 hPa 77% 0.0mm
02/07:00am ESE 10-13 kts 25.4°c 1015.0 hPa 78% 0.0mm
02/06:30am ESE 12-16 kts 25.3°c 1014.7 hPa 79% 0.0mm
02/06:00am ESE 10-14 kts 25.3°c 1014.4 hPa 80% 0.0mm
02/05:30am ESE 10-14 kts 25.1°c 1014.2 hPa 80% 0.0mm
02/05:00am ESE 10-14 kts 25.1°c 1014.0 hPa 81% 0.0mm
02/04:30am SE 10-14 kts 25.0°c 1013.9 hPa 82% 0.0mm
02/04:00am ESE 10-14 kts 24.9°c 1013.9 hPa 83% 0.0mm
02/03:30am SE 7-9 kts 24.5°c 1014.1 hPa 84% 0.0mm
02/03:00am SE 5-7 kts 24.2°c 1014.3 hPa 84% 0.0mm
02/02:30am SSE 5-6 kts 24.0°c 1014.5 hPa 84% 0.0mm
02/02:00am SE 4-5 kts 23.9°c 1014.6 hPa 83% 0.0mm
02/01:30am SSE 5-6 kts 23.9°c 1015.0 hPa 83% 0.0mm
02/01:00am SSE 5-7 kts 24.1°c 1015.4 hPa 82% 0.0mm
02/12:30am SSE 5-7 kts 24.3°c 1015.4 hPa 81% 0.0mm
02/12:00am SSE 7-9 kts 24.6°c 1015.6 hPa 80% 0.0mm
Time Wind Speed Temp Pressure Rel. Hum Rain
01/11:30pm SSE 6-8 kts 24.9°c 1015.8 hPa 80% 0.0mm
01/11:00pm SSE 7-9 kts 25.1°c 1016.0 hPa 79% 0.0mm
01/10:30pm SSE 7-11 kts 25.0°c 1015.7 hPa 78% 0.0mm
01/10:00pm SSE 9-12 kts 25.2°c 1015.7 hPa 78% 0.0mm
01/09:30pm SE 9-13 kts 25.3°c 1015.6 hPa 77% 0.0mm
01/09:00pm SSE 8-13 kts 25.3°c 1015.4 hPa 76% 0.0mm
01/08:30pm SE 10-15 kts 25.5°c 1015.1 hPa 75% 0.0mm
01/08:00pm SSE 10-14 kts 25.7°c 1014.8 hPa 74% 0.0mm
01/07:30pm SE 9-12 kts 25.8°c 1014.2 hPa 73% 0.0mm
01/07:00pm SE 10-13 kts 26.0°c 1013.8 hPa 73% 0.0mm
01/06:30pm SE 12-15 kts 26.2°c 1013.6 hPa 71% 0.0mm
01/06:00pm SE 11-15 kts 26.6°c 1013.2 hPa 70% 0.0mm
01/05:30pm ESE 13-19 kts 27.2°c 1012.8 hPa 69% 0.0mm
01/05:00pm SE 13-19 kts 27.7°c 1012.5 hPa 68% 0.0mm
01/04:30pm SE 14-20 kts 28.1°c 1012.6 hPa 68% 0.0mm
01/04:00pm ESE 16-21 kts 28.4°c 1012.4 hPa 68% 0.0mm
01/03:30pm ESE 13-18 kts 28.7°c 1012.4 hPa 66% 0.0mm
01/03:00pm E 15-21 kts 28.8°c 1012.6 hPa 67% 0.0mm
01/02:30pm ESE 13-17 kts 29.1°c 1012.9 hPa 66% 0.0mm
01/02:00pm ESE 14-18 kts 29.3°c 1013.2 hPa 67% 0.0mm
01/01:30pm ESE 14-21 kts 29.7°c 1013.6 hPa 68% 0.0mm
01/01:00pm ESE 14-17 kts 29.7°c 1013.9 hPa 68% 0.0mm
01/12:30pm ESE 13-17 kts 28.9°c 1014.5 hPa 70% 0.0mm
01/12:00pm ESE 12-17 kts 28.9°c 1014.8 hPa 70% 0.0mm
01/11:30am ESE 13-19 kts 29.0°c 1014.8 hPa 71% 0.0mm
01/11:00am SE 14-19 kts 28.8°c 1014.9 hPa 73% 0.0mm
01/10:30am ESE 13-16 kts 28.8°c 1015.1 hPa 75% 0.0mm
01/10:00am ESE 9-13 kts 28.4°c 1015.3 hPa 78% 0.0mm
01/09:30am SSE 10-13 kts 27.2°c 1015.4 hPa 79% 0.0mm
01/09:00am SE 9-13 kts 26.8°c 1015.3 hPa 80% 0.0mm
01/08:30am SE 10-14 kts 26.4°c 1015.0 hPa 81% 0.0mm
01/08:00am SSE 9-15 kts 25.8°c 1014.7 hPa 82% 0.0mm
01/07:30am SSE 10-15 kts 25.3°c 1014.4 hPa 83% 0.0mm
01/07:00am SSE 9-14 kts 24.8°c 1014.2 hPa 84% 0.0mm
01/06:30am SSE 9-14 kts 24.8°c 1014.0 hPa 83% 0.0mm
01/06:00am SSE 10-14 kts 24.7°c 1013.8 hPa 83% 0.0mm
01/05:30am SSE 10-15 kts 24.6°c 1013.7 hPa 83% 0.0mm
01/05:00am SSE 10-14 kts 24.7°c 1013.3 hPa 83% 0.0mm
01/04:30am SSE 10-14 kts 24.8°c 1013.1 hPa 82% 0.0mm
01/04:00am SSE 9-14 kts 25.0°c 1013.2 hPa 82% 0.0mm
01/03:30am SSE 9-15 kts 25.3°c 1013.2 hPa 81% 0.0mm
01/03:00am SSE 9-14 kts 25.4°c 1013.3 hPa 81% 0.0mm
01/02:30am SSE 9-14 kts 25.5°c 1013.4 hPa 81% 0.0mm
01/02:00am SSE 10-15 kts 25.8°c 1013.8 hPa 80% 0.0mm
01/01:30am SSE 11-15 kts 25.9°c 1013.9 hPa 80% 0.0mm
01/01:00am SSE 9-15 kts 26.0°c 1014.2 hPa 79% 0.0mm
01/12:30am SSE 9-15 kts 26.3°c 1014.7 hPa 79% 0.0mm
01/12:00am SSE 10-16 kts 26.4°c 1014.8 hPa 79% 0.0mm